Location: Rotheul
(50.2849°N, 11.2349°E)
Time: 09:55:47
(UTC+02:00)

ISS - Pass Details

Date: 21 July 2018
Orbit: 402 x 408 km, 51.6° (Epoch: 19 July)

Event Time Altitude Azimuth Distance (km) Brightness Sun altitude
Rises 04:34:39 0° 283° (WNW) 2,331 -0.3 -7.4°
Reaches altitude 10° 04:37:12 10° 263° (W) 1,468 -1.5 -7.1°
Maximum altitude 04:39:27 17° 219° (SW) 1,103 -2.3 -6.9°
Drops below altitude 10° 04:41:42 10° 176° (S) 1,463 -1.4 -6.6°
Sets 04:44:14 0° 156° (SSE) 2,319 -0.2 -6.3°
